User: anonymous   Login
Location: South Range
(44.4886°N, 65.7879°W)
Time: 22:05:39
(UTC-03:00)
Language:

Iridium 56 - Orbit

View from above orbital plane
View from above orbital plane
View from above satellite
View from above satellite

Ground track
Ground track

The orbit data is extracted from the following two-line orbital elements,

1 25170U 98010B   15088.22864602  .00000557  00000-0  19169-3 0  9991
2 25170 086.3986 329.4509 0002392 086.2897 028.4822 14.34221307895527
Epoch (UTC): 29 March 2015 05:29:15
Eccentricity: 0.0002392
inclination: 86.3986°
perigee height: 776 km
apogee height: 779 km
right ascension of ascending node: 329.4509°
argument of perigee: 86.2897°
revolutions per day: 14.34221307
mean anomaly at epoch: 28.4822°
orbit number at epoch: 89552

The dashed part of the orbit path shows where the satellite is in the earth's shadow,  

DLR